(409) Aspasia
ephemeris date magn radius delta ra dec elong phase
Today19 Oct 202512.52.398 AU3.379 AU13h58m-15°51'8.4°3.5°
Opposition9 Jul 202610.92.446 AU1.447 AU19h09m-08°39'166.3°5.7°
(409) Aspasia - 2025-10-19
astro.vanbuitenen.nl


 
-1 year
-1 month
-1 day
Now
+1 day
+1 month
+1 year

The interactive orbit chart above shows the body's path through the solar system and its position at the given date. Green and blue lines are shown perpendicular to the ecliptic plane: Green if the path is above the ecliptic plane, blue if it is below. (Left-click and drag to rotate the view; Right-click and drag to move the view; Use scroll wheel to zoom in our out.)

The orbital elements of Aspasia are:

            e (Eccentricity)                : 0.0731923
            a (Semimajor axis)              : 2.5747933
            i (Inclination)                 : 11.28539
            Ω (Longitude of ascending node) : 242.05210
            ω (Argument of perihelion)      : 355.76509
            M (Mean anomaly)                : 301.17999
            Epoch                           : 2025 May 05

            L (Longitude of perihelion)     : 237.89878
            B (Latitude of perihelion)      : -0.82803
            P (Orbital period in years)     : 4.13            
        

The light curve chart below shows the estimated development of the minor planet's magnitude.


The all-sky chart below shows the path of the minor planet over the same period as the light curve. The current position is marked yellow.





The following chart shows the path of the minor planet in the next few days. The field of view is optimized for (~10x50) binoculars and finderscopes.




Ephemerides:
Date       Time       RA (2000)    DEC (2000)    delta   radius  elong  phase   PA    magn
2025-10-19 00:00 UT   13 58 37.6   -15 51 16     3.379    2.398    8.4    3.5   135   12.5 
2025-10-19 04:23 UT   13 58 58.7   -15 52 44     3.380    2.398    8.3    3.4   135   12.5 
2025-10-20 00:00 UT   14 00 33.6   -15 59 15     3.380    2.398    7.9    3.3   136   12.5 
2025-10-21 00:00 UT   14 02 29.8   -16 07 11     3.381    2.398    7.4    3.1   138   12.5 
2025-10-22 00:00 UT   14 04 26.2   -16 15 05     3.382    2.397    7.0    2.9   139   12.5 
2025-10-23 00:00 UT   14 06 22.8   -16 22 55     3.383    2.397    6.5    2.7   141   12.5 
2025-10-24 00:00 UT   14 08 19.6   -16 30 44     3.384    2.397    6.1    2.5   143   12.5 
2025-10-25 00:00 UT   14 10 16.6   -16 38 29     3.384    2.397    5.6    2.3   146   12.5 
2025-10-26 00:00 UT   14 12 13.8   -16 46 12     3.385    2.396    5.2    2.2   148   12.5 
2025-10-27 00:00 UT   14 14 11.1   -16 53 51     3.385    2.396    4.8    2.0   152   12.4 
2025-10-28 00:00 UT   14 16 08.7   -17 01 28     3.385    2.396    4.4    1.8   156   12.4 
2025-10-29 00:00 UT   14 18 06.4   -17 09 01     3.385    2.395    4.0    1.7   161   12.4 
2025-10-30 00:00 UT   14 20 04.3   -17 16 31     3.385    2.395    3.7    1.5   167   12.4 
2025-10-31 00:00 UT   14 22 02.3   -17 23 58     3.385    2.395    3.4    1.4   174   12.4 
2025-11-01 00:00 UT   14 24 00.6   -17 31 21     3.385    2.395    3.2    1.3   182   12.4 
2025-11-02 00:00 UT   14 25 59.0   -17 38 42     3.385    2.394    3.1    1.3   190   12.4 
2025-11-03 00:00 UT   14 27 57.5   -17 45 58     3.384    2.394    3.0    1.2   200   12.4 
2025-11-04 00:00 UT   14 29 56.3   -17 53 12     3.384    2.394    3.0    1.2   210   12.4 
2025-11-05 00:00 UT   14 31 55.2   -18 00 21     3.383    2.394    3.1    1.3   219   12.4 


    Terminology:
            
    delta:  distance between minor planet and earth in AU
    radius: distance between minor planet and sun in AU
    magn:   magnitude (brightness) estimate    
    ra:     right ascension in hours (24h = 360deg)
    dec:    declination in degrees
    elong:  elongation in degrees (angle sun-earth-minor planet)    
    phase:  phase angle in degrees (angle sun-minor planet-earth)        
    AU:     Astronomical Unit (mean distance between earth and sun: 149597870.7 km
    

Orbital elements provided by the MPC (Minor Planet Center).
Calculations by a modified version of AAPlus, a C# implementation of the AA+ project by PJ Naughter from the algorithms presented in the book "Astronomical Algorithms" by Jean Meeus.
NGC2000 dso catalog and star labels from VizieR as provided by the Strasbourg astronomical Data Center.
Tycho2 catalog from the ESO archive.